Location: Asheville, NC
(35.6000°N, 82.5500°W)
Time: 03:07:32
(UTC-04:00)

ZACube-1 - Visible Passes

Search period start: 18 June 2018 00:00
Search period end: 28 June 2018 00:00
Orbit: 584 x 668 km, 97.6° (Epoch: 17 June)

Date Brightness Start Highest point End Pass type
(mag) Time Alt. Az. Time Alt. Az. Time Alt. Az.
18 Jun ? 21:50:42 10° WSW 21:52:02 11° W 21:53:21 10° WNW visible
22 Jun ? 21:29:27 10° SW 21:32:31 18° W 21:35:33 10° NW visible
23 Jun ? 21:50:53 10° WSW 21:51:53 11° W 21:52:52 10° WNW visible
27 Jun ? 21:29:25 10° SW 21:32:21 18° W 21:35:16 10° NW visible
